TimePST,TemperatureF,Dew PointF,Humidity,Sea Level PressureIn,VisibilityMPH,Wind Direction,Wind SpeedMPH,Gust SpeedMPH,PrecipitationIn,Events,Conditions,WindDirDegrees,DateUTC
12:53 AM,48.0,46.0,93,29.69,10.0,Calm,Calm,-,0.00,Rain,Light Rain,0,2013-11-19 08:53:00
1:53 AM,48.0,46.0,93,29.69,10.0,SSW,3.5,-,0.00,,Overcast,210,2013-11-19 09:53:00
2:53 AM,48.0,46.9,96,29.69,10.0,Calm,Calm,-,0.01,,Overcast,0,2013-11-19 10:53:00
3:53 AM,46.9,46.0,97,29.68,10.0,Calm,Calm,-,0.01,Rain,Light Rain,0,2013-11-19 11:53:00
4:53 AM,46.9,46.0,97,29.68,6.0,Calm,Calm,-,0.01,,Overcast,0,2013-11-19 12:53:00
5:53 AM,46.9,46.0,97,29.68,5.0,Calm,Calm,-,0.00,,Overcast,0,2013-11-19 13:53:00
6:53 AM,46.9,46.0,97,29.68,6.0,Calm,Calm,-,0.00,Rain,Light Rain,0,2013-11-19 14:53:00
7:53 AM,48.0,46.9,96,29.69,3.0,Calm,Calm,-,0.03,Rain,Light Rain,0,2013-11-19 15:53:00
8:27 AM,48.0,46.9,96,29.69,1.8,Calm,Calm,-,0.02,Rain,Light Rain,0,2013-11-19 16:27:00
8:41 AM,48.0,48.0,100,29.70,2.5,Calm,Calm,-,0.03,Rain,Light Rain,0,2013-11-19 16:41:00
8:53 AM,48.0,48.0,100,29.70,1.5,Calm,Calm,-,0.04,Rain,Light Rain,0,2013-11-19 16:53:00
9:04 AM,48.9,48.0,97,29.70,2.0,Calm,Calm,-,0.01,Rain,Light Rain,0,2013-11-19 17:04:00
9:19 AM,48.9,48.0,97,29.71,4.0,Calm,Calm,-,0.02,Rain,Light Rain,0,2013-11-19 17:19:00
9:42 AM,50.0,48.9,96,29.71,5.0,Calm,Calm,-,0.02,,Overcast,0,2013-11-19 17:42:00
9:51 AM,50.0,48.2,94,29.71,6.0,Calm,Calm,-,0.02,Rain,Light Rain,0,2013-11-19 17:51:00
9:53 AM,50.0,48.9,96,29.71,5.0,Calm,Calm,-,0.03,Rain,Light Rain,0,2013-11-19 17:53:00
10:53 AM,51.1,50.0,96,29.73,5.0,Calm,Calm,-,0.03,Rain,Light Rain,0,2013-11-19 18:53:00
11:36 AM,53.1,51.1,93,29.73,10.0,Calm,Calm,-,0.01,,Overcast,0,2013-11-19 19:36:00
11:53 AM,53.1,51.1,93,29.73,10.0,Variable,3.5,-,0.01,Rain,Light Rain,0,2013-11-19 19:53:00
12:01 PM,54.0,50.0,86,29.73,10.0,North,5.8,-,0.00,,Overcast,350,2013-11-19 20:01:00
12:53 PM,54.0,46.0,75,29.74,10.0,WNW,18.4,-,0.00,,Mostly Cloudy,290,2013-11-19 20:53:00
1:53 PM,55.0,44.1,67,29.74,10.0,WNW,15.0,-,N/A,,Overcast,300,2013-11-19 21:53:00
2:53 PM,53.1,42.1,66,29.76,10.0,NW,19.6,-,N/A,,Overcast,310,2013-11-19 22:53:00
3:53 PM,51.1,41.0,68,29.76,10.0,WNW,19.6,28.8,N/A,,Clear,300,2013-11-19 23:53:00
4:53 PM,48.9,39.0,69,29.78,10.0,WNW,21.9,34.5,N/A,,Clear,300,2013-11-20 00:53:00
5:53 PM,48.0,37.9,68,29.80,10.0,WNW,23.0,29.9,N/A,,Clear,300,2013-11-20 01:53:00
6:53 PM,48.0,37.0,66,29.82,10.0,NW,20.7,27.6,N/A,,Clear,310,2013-11-20 02:53:00
7:53 PM,46.9,36.0,66,29.84,10.0,NW,11.5,-,N/A,,Clear,310,2013-11-20 03:53:00
8:53 PM,46.0,35.1,66,29.87,10.0,WNW,15.0,-,N/A,,Scattered Clouds,290,2013-11-20 04:53:00
9:53 PM,46.0,34.0,63,29.89,10.0,WNW,15.0,-,N/A,,Clear,300,2013-11-20 05:53:00
10:53 PM,45.0,30.9,58,29.91,10.0,NW,16.1,24.2,N/A,,Clear,310,2013-11-20 06:53:00
11:53 PM,43.0,30.9,62,29.94,10.0,NW,13.8,23.0,N/A,,Clear,310,2013-11-20 07:53:00